Weather History for Danbury, CT

Change the Weather History Date:

Tuesday, November 20, 2012

  Actual Average Record
Temperature  
Mean Temperature 36 °F -  
Max Temperature 48 °F 49 °F 74 °F (1948)
Min Temperature 24 °F 32 °F 16 °F (1951)
Degree Days  
Heating Degree Days 29    
Moisture  
Dew Point 26 °F    
Average Humidity 81    
Maximum Humidity 100    
Minimum Humidity 46    
Precipitation  
Precipitation 0.00 in - - ()
Sea Level Pressure  
Sea Level Pressure 30.20 in    
Wind  
Wind Speed 0 mph (SW)    
Max Wind Speed 5 mph    
Max Gust Speed -    
Visibility 8 miles    
Events      
Averages and records for this station are not official NWS values.
T = Trace of Precipitation, MM = Missing Value Source: NWS Daily Summary

Daily Weather History Graph

Daily Weather History Graph

Search for Another Location

Airport:

Trip Planner

Search our weather history database for the weather conditions in past years. The results will help you decide how hot, cold, wet, or windy it might be!

Date:

Astronomy

Nov. 20, 2012 Rise Set
Actual Time 6:48 AM EST 4:30 PM EST
Civil Twilight 6:18 AM EST 5:00 PM EST
Nautical Twilight 5:44 AM EST 5:34 PM EST
Astronomical Twilight 5:11 AM EST 6:06 PM EST
Moon 12:19 PM EST (11/20) No Moon Set
Length of Visible Light 10h 41m
Length of Day
9h 41m
Waxing Crescent, 51% of the Moon is Illuminated
Nov 20
Waxing Crescent
Nov 28
Full
Dec 6
Last Quarter
Dec 13
New
Dec 20
First Quarter

Hourly Weather History & Observations

Time (EST) Temp. Windchill Dew Point Humidity Pressure Visibility Wind Dir Wind Speed Gust Speed Precip Events Conditions
12:53 AM 25.0 °F - 23.0 °F 92% 30.27 in 8.0 mi Calm Calm - N/A   Clear
1:53 AM 25.0 °F - 21.9 °F 88% 30.26 in 9.0 mi Calm Calm - N/A   Clear
2:53 AM 24.1 °F - 23.0 °F 96% 30.24 in 9.0 mi Calm Calm - N/A   Clear
3:32 AM 24.8 °F - 23.0 °F 93% 30.22 in 8.0 mi Calm Calm - N/A   Scattered Clouds
3:53 AM 24.1 °F - 21.0 °F 88% 30.22 in 9.0 mi Calm Calm - N/A   Mostly Cloudy
4:31 AM 24.8 °F - 23.0 °F 93% 30.21 in 1.5 mi Calm Calm - N/A   Overcast
4:40 AM 24.8 °F - 21.2 °F 86% 30.21 in 4.0 mi Calm Calm - N/A   Overcast
4:53 AM 25.0 °F - 21.9 °F 88% 30.22 in 1.8 mi Calm Calm - N/A   Overcast
5:05 AM 24.8 °F - 24.8 °F 100% 30.21 in 0.8 mi Calm Calm - N/A   Mist
5:40 AM 24.8 °F - 23.0 °F 93% 30.21 in 1.2 mi Calm Calm - N/A   Overcast
5:43 AM 24.8 °F - 21.2 °F 86% 30.21 in 4.0 mi Calm Calm - N/A   Overcast
5:53 AM 25.0 °F - 21.9 °F 88% 30.22 in 7.0 mi Calm Calm - N/A   Mostly Cloudy
6:01 AM 24.8 °F - 23.0 °F 93% 30.21 in 8.0 mi Calm Calm - N/A   Scattered Clouds
6:53 AM 24.1 °F - 21.9 °F 91% 30.23 in 8.0 mi Calm Calm - N/A   Clear
7:53 AM 28.0 °F - 26.1 °F 92% 30.23 in 7.0 mi Calm Calm - N/A   Clear
8:53 AM 33.1 °F - 30.0 °F 89% 30.22 in 6.0 mi Calm Calm - N/A   Clear
9:53 AM 37.9 °F - 32.0 °F 79% 30.22 in 8.0 mi Calm Calm - N/A   Clear
10:53 AM 42.1 °F 39.2 °F 32.0 °F 67% 30.20 in 10.0 mi Variable 4.6 mph - N/A   Clear
11:53 AM 44.1 °F - 30.0 °F 58% 30.18 in 10.0 mi Calm Calm - N/A   Clear
12:53 PM 46.0 °F - 28.9 °F 51% 30.16 in 10.0 mi Calm Calm - N/A   Clear
1:53 PM 48.0 °F - 28.9 °F 48% 30.15 in 10.0 mi Calm Calm - N/A   Clear
2:53 PM 46.9 °F - 27.0 °F 46% 30.14 in 10.0 mi Calm Calm - N/A   Clear
3:53 PM 46.0 °F - 28.0 °F 50% 30.15 in 10.0 mi Calm Calm - N/A   Clear
4:53 PM 39.9 °F - 30.0 °F 68% 30.15 in 10.0 mi Calm Calm - N/A   Clear
5:53 PM 37.0 °F - 30.0 °F 76% 30.15 in 10.0 mi Calm Calm - N/A   Clear
6:53 PM 35.1 °F 32.2 °F 28.9 °F 78% 30.17 in 10.0 mi SW 3.5 mph - N/A   Clear
7:53 PM 34.0 °F 31.0 °F 28.9 °F 82% 30.17 in 10.0 mi SW 3.5 mph - N/A   Clear
8:53 PM 34.0 °F - 28.9 °F 82% 30.17 in 10.0 mi Calm Calm - N/A   Clear
9:53 PM 30.9 °F - 27.0 °F 85% 30.17 in 10.0 mi Calm Calm - N/A   Clear
10:53 PM 30.0 °F 26.5 °F 27.0 °F 88% 30.18 in 9.0 mi WSW 3.5 mph - N/A   Clear
11:53 PM 30.9 °F - 28.0 °F 89% 30.18 in 10.0 mi Calm Calm - N/A   Clear